User: anonymous   Login
Location: Caltech
(34.1382°N, 118.1253°W)
Time: 06:47:48
(UTC-07:00)
Language:

Iridium 75 - Orbit

View from above orbital plane
View from above orbital plane
View from above satellite
View from above satellite

Ground track
Ground track

The orbit data is extracted from the following two-line orbital elements,

1 25346U 98032E   17085.87408183 -.00000039 +00000-0 -20920-4 0  9993
2 25346 086.3928 258.5022 0001977 088.2548 271.8875 14.34213935987604
Epoch (UTC): 26 March 2017 20:58:40
Eccentricity: 0.0001977
inclination: 86.3928°
perigee height: 776 km
apogee height: 779 km
right ascension of ascending node: 258.5022°
argument of perigee: 88.2548°
revolutions per day: 14.34213935
mean anomaly at epoch: 271.8875°
orbit number at epoch: 98760

The dashed part of the orbit path shows where the satellite is in the earth's shadow,  

DLR